This is the latest recevied weather packets stored in our database for station/object KI5NXU. If no packets are shown the sender has not sent any weather packets the latest 10 day(s).
| Time | Temp. | Humidity | Pressure | Rain* | Wind** | Luminosity | Snow |
|---|---|---|---|---|---|---|---|
| 1777824926 | 23.33° C | 51% | 1020.4 hPa | 0 mm | - | 846 W/m² | - |
| 1777824622 | 23.33° C | 54% | 1020.5 hPa | 0 mm | - | 826 W/m² | - |
| 1777824319 | 23.33° C | 51% | 1020.1 hPa | 0 mm | - | 783 W/m² | - |
| 1777824015 | 23.33° C | 51% | 1020.4 hPa | 0 mm | - | 781 W/m² | - |
| 1777823711 | 22.78° C | 52% | 1020.4 hPa | 0 mm | - | 758 W/m² | - |
| 1777823409 | 22.78° C | 50% | 1020.4 hPa | 0 mm | - | 753 W/m² | - |
| 1777823106 | 22.22° C | 51% | 1020.4 hPa | 0 mm | - | 704 W/m² | - |
| 1777822803 | 22.22° C | 53% | 1020.4 hPa | 0 mm | - | 693 W/m² | - |
| 1777822501 | 22.22° C | 53% | 1020.3 hPa | 0 mm | - | 673 W/m² | - |
| 1777822198 | 22.22° C | 52% | 1020.6 hPa | 0 mm | - | 666 W/m² | - |
| 1777821896 | 22.22° C | 51% | 1020.5 hPa | 0 mm | - | 646 W/m² | - |
| 1777821593 | 21.67° C | 53% | 1020.6 hPa | 0 mm | - | 636 W/m² | - |
| 1777821291 | 21.67° C | 55% | 1020.6 hPa | 0 mm | - | 641 W/m² | - |
| 1777820988 | 21.67° C | 54% | 1020.6 hPa | 0 mm | - | 617 W/m² | - |
| 1777820685 | 21.11° C | 55% | 1020.6 hPa | 0 mm | - | 609 W/m² | - |
| 1777820380 | 21.11° C | 57% | 1020.5 hPa | 0 mm | - | 551 W/m² | - |
| 1777820078 | 21.11° C | 56% | 1020.6 hPa | 0 mm | - | 514 W/m² | - |
| 1777819775 | 20.56° C | 57% | 1020.5 hPa | 0 mm | - | 518 W/m² | - |
| 1777819473 | 20.56° C | 59% | 1020.6 hPa | 0 mm | - | 496 W/m² | - |
| 1777819171 | 20° C | 60% | 1020.4 hPa | 0 mm | - | 450 W/m² | - |
| 1777818867 | 20° C | 57% | 1020.1 hPa | 0 mm | - | 387 W/m² | - |
| 1777818563 | 20° C | 59% | 1020.5 hPa | 0 mm | - | 371 W/m² | - |
| 1777818261 | 19.44° C | 59% | 1020.3 hPa | 0 mm | - | 356 W/m² | - |
| 1777817957 | 19.44° C | 61% | 1020.4 hPa | 0 mm | - | 327 W/m² | - |
| 1777817654 | 18.89° C | 63% | 1020.3 hPa | 0 mm | - | 291 W/m² | - |
* Rain latest hour (hover to see other rain measurements)
** Current wind speed in m/s (hover to see current wind gust speed)